Location: Frugulou
(48.4669°N, 5.0732°W)
Time: 00:52:04
(UTC+00:00)

Daily predictions for brighter satellites

Satellite Brightness Start Highest point End
(mag) Time Altitude Azimuth Time Altitude Azimuth Time Altitude Azimuth
STARLINK-1338 4.2 00:02:25 10° W 00:06:20 55° NNW 00:10:16 10° ENE
Cosmos 2227 Rocket 2.1 00:01:39 10° NNW 00:07:22 86° WSW 00:10:11 32° SSE
Cosmos 1763 Rocket 4.1 00:05:57 31° SE 00:07:33 39° ESE 00:12:16 10° NE
STARLINK-1216 3.6 00:03:57 10° WNW 00:08:02 57° SSW 00:08:47 48° S
Landsat 4 4.0 00:05:08 10° NNE 00:08:46 51° E 00:09:24 44° SE
Cosmos 1356 Rocket 3.4 00:08:20 10° NNW 00:12:36 89° ENE 00:13:55 44° SSE
SL-14 R/B 3.4 00:11:48 43° SW 00:12:51 65° WNW 00:16:41 10° N
STARLINK-1237 3.7 00:08:57 10° WNW 00:13:00 53° SW 00:13:34 48° S
STARLINK-1371 4.3 00:10:49 10° W 00:14:42 52° NNW 00:18:35 10° ENE
STARLINK-1202 3.8 00:13:57 10° WNW 00:17:58 49° SW 00:18:21 48° SSW
STARLINK-1341 4.4 00:15:13 10° W 00:19:06 50° NNW 00:23:00 10° ENE
Nadezhda 1 Rocket 4.0 00:15:49 10° N 00:22:05 82° E 00:25:28 30° SSE
STARLINK-1203 3.8 00:18:47 10° WNW 00:22:47 46° SW 00:23:01 46° SSW
CZ-4 R/B 4.4 00:18:42 10° NNE 00:23:14 44° E 00:24:50 32° SE
Cosmos 1300 3.2 00:19:42 10° NNW 00:23:23 46° W 00:24:09 39° SW
STARLINK-1374 4.4 00:19:34 10° W 00:23:29 49° NNW 00:27:23 10° ENE
STARLINK 1040 4.4 00:26:21 23° ENE 00:26:21 23° ENE 00:27:29 10° ENE
STARLINK-1444 4.4 00:23:40 10° NW 00:25:36 26° N 00:26:52 16° ENE
STARLINK-1452 4.3 00:24:20 10° NW 00:26:13 26° N 00:27:17 18° NE
STARLINK-1392 4.3 00:25:08 10° NW 00:27:00 25° N 00:27:26 23° NNE
STARLINK-1399 4.3 00:25:11 10° NW 00:27:03 26° N 00:27:36 22° NE
STARLINK-1393 4.3 00:25:13 10° NW 00:27:05 25° N 00:27:35 23° NE
STARLINK-1394 4.3 00:25:15 10° NW 00:27:06 25° N 00:27:36 23° NE
STARLINK-1395 4.3 00:25:19 10° NW 00:27:09 25° N 00:27:24 25° NNE
STARLINK-1397 4.3 00:25:17 10° NW 00:27:09 26° N 00:27:44 22° NE
STARLINK-1396 4.3 00:25:18 10° NW 00:27:10 26° N 00:27:42 23° NE
STARLINK-1414 4.3 00:25:19 10° NW 00:27:10 25° N 00:27:36 23° NNE
STARLINK-1408 4.3 00:25:22 10° NW 00:27:13 25° N 00:27:38 24° NNE
STARLINK-1416 4.3 00:25:25 10° NW 00:27:15 25° N 00:27:44 23° NE
STARLINK-1404 4.3 00:25:24 10° NW 00:27:16 26° N 00:27:49 22° NE
STARLINK-1415 4.3 00:25:25 10° NW 00:27:17 26° N 00:27:57 22° NE
STARLINK-1406 4.3 00:25:28 10° NW 00:27:19 25° N 00:27:42 24° NNE
STARLINK-1450 4.3 00:25:27 10° NW 00:27:20 26° N 00:28:00 22° NE
STARLINK-1401 4.3 00:25:28 10° NW 00:27:21 26° N 00:28:00 22° NE
Cosmos 2285 Rocket 4.4 00:21:02 10° NNW 00:27:22 62° ENE 00:31:55 19° SE
STARLINK-1417 4.3 00:25:32 10° NW 00:27:24 26° N 00:28:04 22° NE
STARLINK-1413 4.3 00:25:33 10° NW 00:27:25 26° N 00:28:05 22° NE
STARLINK-1402 4.3 00:25:33 10° NW 00:27:25 26° N 00:28:04 22° NE
STARLINK-1419 4.3 00:25:34 10° NW 00:27:25 26° N 00:27:59 23° NE
STARLINK-1422 4.3 00:25:39 10° NW 00:27:31 26° N 00:28:09 22° NE
STARLINK-1453 4.3 00:25:40 10° NW 00:27:33 26° N 00:28:18 21° NE
STARLINK-1398 4.3 00:25:41 10° NW 00:27:35 26° N 00:28:28 20° NE
STARLINK-1420 4.3 00:25:43 10° NW 00:27:36 26° N 00:28:17 21° NE
STARLINK-1440 4.3 00:25:45 10° NW 00:27:38 26° N 00:28:21 21° NE
STARLINK-1460 4.3 00:25:46 10° NW 00:27:39 26° N 00:28:20 21° NE
STARLINK-1436 (VISORSAT) 4.3 00:25:46 10° NW 00:27:40 26° N 00:28:34 19° NE
STARLINK-1410 4.3 00:25:50 10° NW 00:27:43 26° N 00:28:22 22° NE
STARLINK-1423 4.3 00:25:51 10° NW 00:27:43 26° N 00:28:15 23° NE
STARLINK-1421 4.3 00:25:51 10° NW 00:27:43 26° N 00:28:16 23° NE
STARLINK-1400 4.3 00:25:50 10° NW 00:27:44 26° N 00:28:23 22° NE
STARLINK-1339 4.5 00:23:52 10° W 00:27:44 48° NNW 00:31:37 10° ENE
STARLINK-1454 4.3 00:25:52 10° NW 00:27:45 26° N 00:28:25 22° NE
STARLINK-1458 4.3 00:25:55 10° NW 00:27:48 26° N 00:28:24 22° NE
STARLINK-1445 4.3 00:25:57 10° NW 00:27:50 26° N 00:28:35 21° NE
STARLINK-1407 4.3 00:25:59 10° NW 00:27:52 26° N 00:28:35 21° NE
STARLINK-1405 4.3 00:26:02 10° NW 00:27:53 25° N 00:28:09 25° NNE
STARLINK-1446 4.3 00:25:59 10° NW 00:27:53 26° N 00:28:37 21° NE
STARLINK-1246 4.0 00:23:57 10° WNW 00:27:53 43° SW 00:27:55 43° SW
STARLINK-1370 4.3 00:26:02 10° NW 00:27:55 26° N 00:28:37 21° NE
STARLINK-1439 4.3 00:26:06 10° NW 00:27:56 25° N 00:28:12 25° NNE
STARLINK-1456 4.3 00:26:04 10° NW 00:27:56 26° N 00:28:33 22° NE
STARLINK-1457 4.3 00:26:04 10° NW 00:27:56 26° N 00:28:33 22° NE
STARLINK-1451 4.3 00:26:04 10° NW 00:27:56 26° N 00:28:33 22° NE
STARLINK-1409 4.3 00:26:04 10° NW 00:27:57 26° N 00:28:34 22° NE
STARLINK-1447 4.3 00:26:05 10° NW 00:27:58 26° N 00:28:41 21° NE
STARLINK-1455 4.3 00:26:05 10° NW 00:27:58 26° N 00:28:41 21° NE
STARLINK-1437 4.3 00:26:06 10° NW 00:27:59 26° N 00:28:38 22° NE
STARLINK-1441 4.3 00:26:07 10° NW 00:28:01 26° N 00:28:44 21° NE
STARLINK-1443 4.3 00:26:10 10° NW 00:28:03 26° N 00:28:52 20° NE
STARLINK-1351 4.3 00:26:12 10° NW 00:28:05 26° N 00:28:49 21° NE
STARLINK-1418 4.3 00:26:12 10° NW 00:28:05 26° N 00:28:48 21° NE
STARLINK-1434 4.3 00:26:12 10° NW 00:28:05 26° N 00:28:54 20° NE
STARLINK-1442 4.3 00:26:13 10° NW 00:28:06 26° N 00:28:50 21° NE
STARLINK-1403 4.3 00:26:12 10° NW 00:28:06 26° N 00:28:52 21° NE
STARLINK-1448 4.3 00:26:15 10° NW 00:28:08 26° N 00:28:51 21° NE
STARLINK-1433 4.3 00:26:16 10° NW 00:28:08 26° N 00:28:51 21° NE
STARLINK-1449 4.3 00:26:18 10° NW 00:28:11 26° N 00:28:57 21° NE
STARLINK-1438 4.3 00:26:21 10° NW 00:28:14 26° N 00:28:49 22° NE
STARLINK-1411 4.3 00:26:28 10° NW 00:28:21 26° N 00:29:02 22° NE
STARLINK-1412 4.3 00:26:28 10° NW 00:28:22 26° N 00:29:05 21° NE
Meteor 2-16 Rocket 4.4 00:27:14 31° SSW 00:30:24 80° W 00:36:33 10° N
CZ-2D R/B 4.4 00:29:41 10° ENE 00:31:44 12° E 00:33:47 10° ESE
Cosmos-2242 4.2 00:28:20 10° N 00:32:15 34° ENE 00:34:23 21° ESE
Meteor 2-10 Rocket 3.7 00:27:38 10° N 00:32:46 62° ENE 00:35:15 29° SSE
STARLINK-1224 4.1 00:28:56 10° WNW 00:32:41 39° SW 00:32:41 39° SW
YAOGAN 11 4.1 00:32:04 42° SSW 00:33:23 66° WSW 00:37:40 10° NNW
BREEZE-M R/B 3.3 00:27:16 10° WSW 00:34:57 85° SSE 00:38:40 10° ENE
Cosmos 1626 Rocket 3.5 00:34:39 42° SSW 00:36:05 82° W 00:40:29 10° N
USA 215 3.2 00:29:34 10° SE 00:36:09 86° SSW 00:42:44 10° NW
STARLINK-1225 4.3 00:33:57 10° WNW 00:37:28 36° SW 00:37:28 36° SW
STARLINK-60 4.1 00:35:01 10° WNW 00:38:05 45° NNE 00:41:10 10° E
STARLINK-1230 4.4 00:38:57 10° WNW 00:42:14 33° SW 00:42:14 33° SW
Cosmos 540 Rocket 4.2 00:41:07 29° SSE 00:43:03 41° ESE 00:47:50 10° NE
SeaSat 1 3.4 00:39:01 10° NNE 00:43:40 42° NW 00:47:21 15° WSW
STARLINK-1307 4.4 00:46:48 29° ESE 00:46:48 29° ESE 00:49:34 10° ENE
NOSS 7 (H) 4.3 00:46:43 51° W 00:47:15 65° NW 00:50:11 10° NE
SL-08 ROCKET BODY 4.3 00:45:02 31° SSW 00:47:57 79° W 00:53:51 10° N
Helios 1B rocket 2.5 00:44:58 10° NNE 00:49:07 69° ESE 00:50:24 42° S
STARLINK-1290 4.3 00:50:11 31° SE 00:50:11 31° SE 00:53:06 10° ENE
ALOS 2 4.3 00:51:58 18° WSW 00:53:09 20° W 00:56:23 10° NW
Cosmos 1980 Rocket 2.7 00:51:50 29° SSE 00:54:13 46° ESE 00:59:37 10° NE
ERBS 3.4 00:52:57 10° WNW 00:55:10 31° W 00:55:10 31° W
Uosat 12 SS-18 rocket 3.9 00:51:53 10° NW 00:56:10 72° SW 00:58:02 34° SSE
STARLINK-1317 3.9 00:56:33 40° SSE 00:56:40 40° SE 01:00:20 10° ENE
Cosmos 468 Rocket 4.1 00:54:20 30° SW 00:56:50 71° WNW 01:01:59 10° NNE
Cosmos 1626 4.1 00:55:23 16° W 00:56:52 20° WNW 00:59:42 10° NNW
Meteor 1-29 3.3 00:54:20 10° NNE 00:57:38 50° E 00:58:11 44° SE
Cosmos 1455 2.0 00:55:20 10° N 00:59:05 89° W 01:00:05 48° S
STARLINK-55 2.9 01:00:33 62° SE 01:00:33 62° SE 01:03:38 10° ENE
STARLINK-1274 3.8 01:00:56 38° SE 01:00:56 38° SE 01:04:01 10° ENE
Cosmos 1328 4.4 00:59:35 34° SE 01:00:53 48° E 01:04:45 10° NNE
STARLINK-43 3.3 01:00:05 30° WSW 01:01:46 81° NNW 01:05:28 10° ENE
Cosmos 1812 Rocket 3.9 00:58:26 10° NNW 01:02:47 53° W 01:04:13 37° SSW
STARLINK-1291 3.7 01:04:15 42° SSE 01:04:22 42° SE 01:07:55 10° ENE
Cosmos 1745 Rocket 4.2 01:01:26 27° SSW 01:04:47 59° WNW 01:10:52 10° N
Cosmos 1937 Rocket 3.7 00:59:45 10° NNW 01:04:56 58° WSW 01:07:10 33° S
Cosmos 2369 3.6 01:02:04 30° SSW 01:04:58 90° NW 01:10:41 10° NNE
Lacrosse 4 Rocket 2.0 01:02:42 10° NW 01:06:42 38° WSW 01:07:20 35° SW
Cosmos 1703 3.4 01:05:53 39° SSE 01:07:07 62° E 01:11:01 10° NNE
STARLINK-1264 3.7 01:07:26 44° SSE 01:07:40 45° SE 01:11:15 10° ENE
Cosmos 2263 Rocket 3.0 01:03:57 10° NNW 01:09:24 48° NE 01:14:47 10° SE
Cosmos 1825 Rocket 3.6 01:08:39 36° S 01:10:19 71° E 01:14:40 10° NNE
STARLINK-29 4.1 01:07:46 10° WNW 01:10:52 44° NNE 01:13:57 10° E
Timation 1 Rocket 4.5 01:05:00 10° NNW 01:11:00 74° ENE 01:16:19 13° SE
STARLINK-1267 3.6 01:10:40 45° SSE 01:11:01 47° SE 01:14:38 10° ENE
STARLINK-28 2.8 01:11:33 63° SW 01:11:59 80° SSE 01:15:12 10° ENE
SL-4 R/B 2.4 01:07:29 10° WNW 01:12:22 81° NNE 01:17:08 10° ESE
Cosmos 2297 Rocket 3.4 01:08:40 10° NW 01:13:09 25° WSW 01:14:45 22° SW
Cosmos 1656 4.5 01:09:18 18° WSW 01:13:15 46° NW 01:18:37 10° NNE
Cosmos 1898 Rocket 4.3 01:08:49 10° NW 01:13:40 37° WSW 01:15:28 28° SW
Cosmos 1602 Rocket 4.2 01:12:31 29° SW 01:14:12 43° WNW 01:18:22 10° N
USA 229 DEB 4.3 01:07:23 10° NW 01:14:33 65° NE 01:22:04 10° SE
USA 229 4.3 01:07:30 10° NW 01:14:39 64° NE 01:22:10 10° SE
NOSS 3-1 (C) 4.3 01:08:06 10° NW 01:15:25 71° NE 01:23:55 10° SE
Cosmos 372 Rocket 3.9 01:12:19 10° NNW 01:17:29 86° ENE 01:20:47 23° SSE
STARLINK-1207 3.5 01:17:09 46° S 01:17:46 53° SSE 01:21:26 10° ENE
PSLV R/B 3.9 01:15:26 10° N 01:19:48 58° WNW 01:21:39 31° SW
CZ-4C R/B 2.6 01:16:43 19° WSW 01:20:29 61° NW 01:26:40 10° NE
Cosmos 2360 4.2 01:17:45 29° SSW 01:20:49 89° WNW 01:26:35 10° NNE
STARLINK-1266 3.4 01:20:25 46° SSW 01:21:09 56° SSE 01:24:51 10° ENE
BREEZE-M DEB (TANK) 4.0 01:23:13 15° E 01:23:13 15° E 01:23:47 10° E
STARLINK-33 2.7 01:21:40 58° SW 01:22:12 84° SSE 01:25:19 10° ENE
STARLINK-1284 3.4 01:23:41 44° SSW 01:24:32 59° SSE 01:28:15 10° ENE
STARLINK-26 3.0 01:24:28 39° WSW 01:25:37 90° SSE 01:29:04 10° ENE
BREEZE-M DEB (TANK) 1.4 01:23:11 10° W 01:26:14 68° N 01:28:32 10° E
Alouette 2 Rocket 3.7 01:22:06 10° NNW 01:26:48 54° W 01:28:04 36° SSW
Cosmos 2082 4.4 01:22:48 10° NW 01:27:55 36° WSW 01:30:00 27° SSW
STARLINK-1258 3.3 01:26:59 43° SSW 01:27:59 62° SSE 01:31:42 10° ENE
Cosmos 2150 Rocket 4.0 01:24:56 10° NNW 01:30:07 83° ENE 01:33:54 19° SSE
Spot 1 4.4 01:27:44 27° S 01:30:32 83° WSW 01:35:42 10° NNW
STARLINK-1292 3.3 01:30:17 41° SW 01:31:25 66° SSE 01:35:08 10° ENE
Cosmos 1814 Rocket 4.0 01:29:12 29° SSW 01:32:00 87° WNW 01:37:21 10° NNE
Cosmos 2322 Rocket 3.7 01:29:42 14° SSE 01:33:11 25° ESE 01:37:40 10° NE
SJ 16-02 3.2 01:33:04 10° WNW 01:35:46 16° W 01:36:30 15° WSW
STARLINK-1268 2.7 01:36:30 53° SW 01:37:06 77° SSE 01:40:12 10° ENE
SL-19 R/B 4.3 01:32:31 10° NNE 01:38:12 90° ESE 01:41:48 25° SSW
STARLINK-1289 3.2 01:36:51 36° SW 01:38:16 73° SSE 01:42:01 10° ENE
Cosmos 2181 Rocket 4.1 01:32:15 10° NNW 01:38:42 71° W 01:42:49 23° S
Cosmos 1697 Rocket 3.3 01:36:19 19° SW 01:40:10 50° NW 01:45:42 10° NNE
STARLINK-1301 3.3 01:38:35 33° SW 01:40:13 77° SSE 01:44:05 10° ENE
STARLINK-66 3.0 01:39:32 30° WSW 01:40:56 73° NNW 01:44:09 10° ENE
Resurs 1-4 Rocket 2.8 01:36:15 10° NNE 01:41:24 47° E 01:44:54 20° SSE
Cosmos 2278 3.8 01:38:01 24° SW 01:41:27 70° WNW 01:47:09 10° NNE
STARLINK-1303 3.2 01:40:12 34° SW 01:41:44 76° SSE 01:45:30 10° ENE
Cosmos 841 Rocket 3.7 01:38:49 26° SW 01:41:46 64° WNW 01:46:57 10° NNE
STARLINK-1316 2.7 01:41:30 44° WSW 01:42:22 84° SSE 01:45:30 10° ENE
DELTA 2 DEB (DPAF) 4.1 01:40:14 26° S 01:42:44 82° WSW 01:47:14 10° NNW
Cosmos 1400 Rocket 2.8 01:38:38 10° NNW 01:42:47 77° W 01:44:46 30° S
STARLINK-1257 2.7 01:42:21 43° WSW 01:43:15 85° SSE 01:46:23 10° ENE
Cosmos 1125 Rocket 3.7 01:38:32 10° NNW 01:43:45 70° ENE 01:48:54 10° SSE
STARLINK-1256 2.7 01:43:18 42° WSW 01:44:13 86° SSE 01:47:21 10° ENE
STARLINK-58 2.9 01:44:00 47° SSW 01:44:41 66° SSE 01:47:51 10° ENE
STARLINK-1213 2.7 01:44:09 41° WSW 01:45:06 88° SSE 01:48:14 10° ENE
STARLINK-1312 3.2 01:43:33 31° SW 01:45:13 80° SSE 01:49:01 10° ENE
STARLINK-1263 2.7 01:45:01 40° WSW 01:45:59 89° SSE 01:49:07 10° ENE
STARLINK-52 3.5 01:43:05 10° WNW 01:46:17 58° NNE 01:49:27 10° E
STARLINK-1259 2.7 01:45:54 39° WSW 01:46:55 90° SW 01:50:04 10° ENE
STARLINK-1265 2.8 01:46:15 38° WSW 01:47:19 90° W 01:50:29 10° ENE
STARLINK-1285 2.8 01:46:44 38° WSW 01:47:48 89° NW 01:50:56 10° ENE
SAR-Lupe-3 4.5 01:44:23 10° NNE 01:47:58 81° ESE 01:49:23 35° S
STARLINK-1296 2.8 01:48:30 36° WSW 01:49:36 87° NNW 01:52:45 10° ENE
Cosmos 2084 Rocket 4.4 01:46:28 10° WNW 01:50:25 31° WSW 01:51:25 28° SSW
STARLINK-1260 2.8 01:49:21 35° WSW 01:50:31 86° NNW 01:53:39 10° ENE
Cosmos 2227 Rocket 4.0 01:47:34 10° WNW 01:50:33 15° W 01:51:58 13° WSW
STARLINK-1318 2.8 01:50:13 34° WSW 01:51:25 85° NNW 01:54:34 10° ENE
STARLINK-75 3.2 01:50:25 25° WSW 01:52:10 69° NNW 01:55:24 10° ENE
STARLINK-1275 2.8 01:51:05 33° WSW 01:52:19 84° NNW 01:55:28 10° ENE
STARLINK-1309 2.8 01:51:57 33° WSW 01:53:13 83° NNW 01:56:20 10° ENE
STARLINK-1282 2.8 01:52:49 32° WSW 01:54:06 82° NNW 01:57:14 10° ENE
STARLINK-1313 3.0 01:53:45 28° WSW 01:55:13 74° NNW 01:58:22 10° ENE
STARLINK-48 3.6 01:53:48 32° SSW 01:55:17 55° SSE 01:59:07 10° ENE
STARLINK-1279 3.0 01:54:39 27° WSW 01:56:10 73° NNW 01:59:17 10° ENE
STARLINK-1298 2.9 01:55:23 30° WSW 01:56:46 79° NNW 01:59:54 10° ENE
STARLINK-1278 4.4 01:55:21 28° S 01:56:52 38° SE 02:00:49 10° ENE
Cosmos 2298 Rocket 4.2 01:51:46 10° NNW 01:56:58 56° WSW 02:00:18 22° S
Meteor 1-27 4.2 01:51:22 10° NNW 01:56:58 87° W 02:01:18 18° S
Cosmos 2227 4.2 01:51:52 10° NNW 01:57:37 71° WSW 02:02:39 14° SSE
STARLINK-1293 2.9 01:56:17 29° WSW 01:57:42 78° NNW 02:00:50 10° ENE
STARLINK-80 3.4 01:55:29 23° WSW 01:57:46 85° NNW 02:01:35 10° ENE
STARLINK-1283 3.6 01:55:36 20° WSW 01:58:21 85° NNW 02:02:30 10° ENE
GEOS 3 Rocket 4.0 01:53:28 10° SE 01:58:37 68° NE 02:03:55 10° NW
STARLINK-1280 4.4 01:57:08 28° S 01:58:42 39° SE 02:02:41 10° ENE
STARLINK 1040 4.2 01:56:41 10° WNW 01:59:01 30° N 02:01:22 10° ENE
STARLINK-1255 2.9 01:58:01 28° WSW 01:59:31 76° NNW 02:02:39 10° ENE
STARLINK-22 3.1 01:58:39 24° WSW 02:00:24 72° NNW 02:03:38 10° ENE
Iridium 2 4.1 01:56:49 10° N 02:00:34 57° E 02:03:11 18° SSE
SL-16 R/B 2.5 01:55:29 15° SSE 02:00:48 84° WSW 02:07:03 10° NNW
STARLINK-1311 3.0 02:00:03 25° W 02:01:33 64° NNW 02:04:30 10° ENE
STARLINK-1297 3.2 02:00:20 23° WSW 02:02:27 84° NNW 02:06:05 10° ENE
Cosmos 1844 Rocket 4.5 01:58:41 10° NNW 02:03:44 32° NE 02:08:43 10° ESE
NOSS 2-1 (E) 3.8 02:04:58 26° S 02:06:19 39° ESE 02:09:44 10° NE
STARLINK-1286 4.3 02:05:37 26° S 02:07:20 39° SE 02:11:15 10° ENE
SL-16 R/B 2.6 02:04:36 20° S 02:08:27 54° ESE 02:13:59 10° NE
Cosmos-2242 4.4 02:06:11 10° NW 02:09:38 24° W 02:11:13 20° WSW
STARLINK-1281 4.3 02:08:48 26° SSW 02:10:34 40° SE 02:14:28 10° ENE
MOZ.5/SAFIR/RUBIN 5/SL-8 3.9 02:07:56 23° S 02:10:39 54° W 02:15:14 10° NNW
STARLINK-42 3.6 02:08:31 15° W 02:10:52 52° NNW 02:13:56 10° ENE
CZ-2D R/B 2.1 02:07:23 10° NNE 02:12:38 82° ESE 02:16:21 20° SSW
Cosmos 2221 2.6 02:08:22 10° N 02:12:45 83° E 02:16:17 16° SSE
STARLINK-1029 2.8 02:11:18 29° WSW 02:12:47 84° SSE 02:15:57 10° ENE
Cosmos 1953 Rocket 4.3 02:10:42 22° SW 02:13:04 40° WNW 02:17:14 10° N
STARLINK-34 2.9 02:11:58 25° WSW 02:13:37 78° NNW 02:16:43 10° ENE
STARLINK-60 3.1 02:11:07 10° WNW 02:14:12 47° SSW 02:17:17 10° SE
STARLINK-41 3.6 02:12:04 15° W 02:14:25 51° NNW 02:17:25 10° ENE
STARLINK-1310 4.2 02:13:35 25° SSW 02:15:32 43° SE 02:19:29 10° ENE
FALCON 9 DEB 3.6 02:12:09 10° WNW 02:15:36 65° NNE 02:19:02 10° ESE
CZ-4C R/B 3.8 02:14:17 22° S 02:16:56 53° W 02:21:18 10° NNW
STARLINK-62 2.9 02:15:41 22° WSW 02:17:27 73° NNW 02:20:30 10° ENE
GP-B 3.5 02:13:32 10° N 02:17:50 49° W 02:20:26 22° SSW
Nadezhda 3 Rocket 4.1 02:11:44 10° N 02:18:05 84° E 02:24:28 10° S
STARLINK-1272 3.5 02:15:30 16° WSW 02:18:11 67° NNW 02:21:44 10° ENE
BREEZE-M DEB (TANK) 3.8 02:15:59 10° W 02:16:35 13° W 02:16:35 13° W
Cosmos 1315 Rocket 2.7 02:14:31 10° NNW 02:18:27 84° W 02:21:25 17° S
USA 215 4.0 02:15:22 15° S 02:19:43 29° SW 02:25:20 10° WNW
Cosmos 1842 Rocket 3.6 02:15:33 10° NNW 02:20:01 69° W 02:23:13 18° S
STARLINK-1319 4.1 02:18:21 24° SSW 02:20:28 46° SE 02:24:28 10° ENE
STARLINK-1307 3.6 02:20:59 14° WSW 02:24:06 66° NNW 02:27:48 10° ENE
STARLINK-1350 4.5 02:20:56 10° WNW 02:24:51 51° NNE 02:28:47 10° E
STARLINK-1277 4.0 02:23:08 23° SSW 02:25:27 50° SE 02:29:28 10° ENE
Shenzhou-11 Module 3.3 02:26:47 18° SSE 02:26:47 18° SSE 02:27:57 10° ESE
STARLINK-1290 3.7 02:24:22 13° WSW 02:27:37 64° NNW 02:31:21 10° ENE
STARLINK-1352 4.4 02:25:06 10° WNW 02:29:02 52° NNE 02:32:58 10° E
Cosmos 2058 3.2 02:27:00 16° S 02:30:19 66° E 02:34:31 10° NNE
STARLINK-1276 3.9 02:27:56 21° SW 02:30:26 54° SE 02:34:29 10° ENE
Cosmos 2360 Rocket 3.3 02:25:44 11° S 02:30:39 37° ESE 02:35:47 10° NE
STARLINK-1368 4.4 02:29:48 10° WNW 02:33:45 54° NNE 02:37:43 10° E
STARLINK-1317 4.0 02:31:28 10° W 02:35:21 59° NNW 02:39:14 10° ENE
STARLINK-1305 3.8 02:32:41 20° SW 02:35:22 58° SSE 02:39:27 10° ENE
STARLINK-1306 3.8 02:33:14 20° SW 02:36:02 61° SSE 02:40:11 10° ENE
STARLINK-55 4.2 02:33:38 10° W 02:36:42 40° N 02:39:45 10° ENE
STARLINK-1274 3.8 02:34:29 10° W 02:37:58 55° NNW 02:41:28 10° ENE
STARLINK-1369 4.3 02:34:14 10° WNW 02:38:13 56° NNE 02:42:11 10° E
Cosmos 1980 Rocket 3.3 02:33:35 11° WSW 02:38:23 35° NW 02:43:34 10° NNE
CZ-4B R/B 3.6 02:34:50 10° NNE 02:40:06 81° WNW 02:44:30 15° SSW
STARLINK-1262 3.7 02:37:30 19° SW 02:40:22 62° SSE 02:44:28 10° ENE
Cosmos 2074 Rocket 4.4 02:36:04 17° SW 02:40:52 51° WNW 02:46:59 10° N
FALCON 9 R/B 4.4 02:36:00 14° SW 02:41:31 26° S 02:57:27 10° SE
STARLINK-1372 4.2 02:38:24 10° WNW 02:42:22 57° NNE 02:46:18 10° E
STARLINK-1291 4.0 02:38:44 10° W 02:42:25 55° NNW 02:46:06 10° ENE
Cosmos 2333 Rocket 4.3 02:40:38 10° SE 02:44:30 19° E 02:48:23 10° ENE
STARLINK-1300 3.7 02:42:17 17° SW 02:45:19 66° SSE 02:49:27 10° ENE
STARLINK-1264 4.0 02:42:05 10° W 02:45:45 53° NNW 02:49:25 10° ENE
STARLINK-29 3.1 02:43:56 10° WNW 02:47:03 49° SSW 02:50:08 10° SE
STARLINK-1378 4.2 02:43:08 10° WNW 02:47:07 60° NNE 02:51:07 10° E
STARLINK-28 4.4 02:45:16 10° WNW 02:48:18 37° N 02:51:20 10° ENE
Cosmos 2219 Rocket 4.3 02:44:48 10° SE 02:48:37 19° E 02:52:25 10° ENE
IRIDIUM 106 4.3 02:44:10 12° S 02:49:05 85° W 02:54:21 10° N
STARLINK-1267 4.1 02:45:28 10° W 02:49:08 52° NNW 02:52:48 10° ENE
STARLINK-1295 3.6 02:47:03 16° SW 02:50:17 71° SSE 02:54:25 10° ENE
ADEOS II 2.3 02:45:04 10° NNE 02:50:21 72° ESE 02:55:36 10° S
STARLINK-64 3.3 02:47:48 13° WSW 02:50:53 79° NNW 02:54:30 10° ENE
STARLINK-1379 4.1 02:47:38 10° WNW 02:51:39 62° NNE 02:55:39 10° E
SL-4 R/B 2.9 02:47:29 10° WNW 02:51:54 36° SW 02:56:08 10° SSE
Cosmos 2263 Rocket 3.0 02:48:15 10° NW 02:53:07 31° WSW 02:57:35 12° SSW
IRS-1D 3.6 02:47:51 10° NNE 02:53:10 87° WNW 02:58:00 12° SSW
AQUA 4.0 02:48:34 10° N 02:53:16 60° WNW 02:57:17 14° SSW
IDEFIX/ARIANE 42P 4.3 02:49:06 10° NE 02:53:37 28° E 02:58:05 10° SSE
STARLINK-1287 3.6 02:51:50 15° SW 02:55:15 75° SSE 02:59:24 10° ENE
STARLINK-1329 4.0 02:51:28 10° WNW 02:55:30 65° NNE 02:59:30 10° ESE
STARLINK-1207 4.2 02:52:17 10° W 02:55:57 50° NNW 02:59:37 10° ENE
ERS-2 3.3 02:53:15 10° SE 02:56:45 45° ENE 03:00:16 10° N
BREEZE-M R/B 2.3 02:53:29 10° WNW 02:57:38 84° NNE 03:00:14 10° E
STARLINK-33 4.4 02:55:15 10° WNW 02:58:10 36° N 03:01:06 10° ENE
Cosmos 2341 Rocket 4.1 02:52:56 10° S 02:59:18 85° E 03:05:39 10° N
STARLINK-1266 4.2 02:55:44 10° W 02:59:22 48° NNW 03:03:02 10° ENE
ARIANE 5 R/B 3.1 02:54:35 10° NNE 02:59:30 53° E 03:04:22 10° S
NPP 4.1 02:54:30 10° N 02:59:41 49° WNW 03:04:24 12° SW
Cosmos 1892 2.8 02:56:52 15° SSW 02:59:58 61° WNW 03:03:43 10° N
STARLINK-1362 4.0 02:56:01 10° WNW 03:00:03 67° NNE 03:04:05 10° ESE
STARLINK-1320 3.0 02:58:18 10° WNW 03:01:26 80° NNE 03:04:34 10° ESE
STARLINK-1322 2.9 02:58:39 10° WNW 03:01:47 80° NNE 03:04:54 10° ESE
STARLINK-1324 2.9 02:58:58 10° WNW 03:02:06 81° NNE 03:05:13 10° ESE
NOSS 2-1 (C) 3.5 02:59:23 13° WSW 03:02:15 51° NW 03:05:55 10° NE
STARLINK-1294 3.0 02:59:16 10° WNW 03:02:25 81° NNE 03:05:34 10° ESE
STARLINK-1261 2.9 02:59:39 10° WNW 03:02:47 81° NNE 03:05:55 10° ESE
STARLINK-1284 4.3 02:59:09 10° W 03:02:48 47° NNW 03:06:27 10° ENE
STARLINK-1325 2.9 03:00:01 10° WNW 03:03:09 82° NNE 03:06:16 10° ESE
STARLINK-1333 2.9 03:00:23 10° WNW 03:03:31 82° NNE 03:06:38 10° ESE
STARLINK-1334 2.9 03:00:40 10° WNW 03:03:48 82° NNE 03:06:55 10° ESE
STARLINK-1326 2.9 03:00:59 10° WNW 03:04:07 83° NNE 03:07:14 10° ESE
STARLINK-1299 3.7 03:00:07 11° WSW 03:04:10 88° NNW 03:08:27 10° ENE
STARLINK-1323 2.9 03:01:22 10° WNW 03:04:30 83° NNE 03:07:38 10° ESE
STARLINK-1373 3.9 03:00:29 10° WNW 03:04:31 70° NNE 03:08:32 10° ESE
STARLINK-1349 2.9 03:01:41 10° WNW 03:04:48 84° NNE 03:07:55 10° ESE
STARLINK-1336 2.9 03:01:59 10° WNW 03:05:08 84° NNE 03:08:15 10° ESE
STARLINK-1302 3.6 03:01:23 12° WSW 03:05:12 85° SSE 03:09:22 10° ENE
USA 229 DEB 4.4 02:58:41 10° NW 03:05:18 38° WSW 03:12:11 10° S
USA 229 4.4 02:58:46 10° NW 03:05:24 39° WSW 03:12:18 10° S
STARLINK-1331 2.9 03:02:22 10° WNW 03:05:30 85° NNE 03:08:38 10° ESE
Cosmos 1869 4.4 03:02:26 10° NNW 03:05:45 27° W 03:08:31 13° SW
STARLINK-1344 2.9 03:02:40 10° WNW 03:05:48 85° NNE 03:08:56 10° ESE
STARLINK-1343 2.9 03:03:03 10° WNW 03:06:12 85° NNE 03:09:18 10° ESE
STARLINK-1258 4.3 03:02:37 10° W 03:06:15 46° NNW 03:09:54 10° ENE
STARLINK-1346 2.9 03:03:19 10° WNW 03:06:29 86° NNE 03:09:39 10° ESE
IRS-1C 4.2 03:01:09 10° NNE 03:06:32 80° ESE 03:11:52 10° SSW
STARLINK-1328 2.9 03:03:46 10° WNW 03:06:54 86° NNE 03:10:02 10° ESE
STARLINK-24 4.4 03:03:58 13° SSW 03:07:07 37° SE 03:10:50 10° ENE
NOSS 2-1 (D) 3.7 03:04:09 12° WSW 03:07:10 46° NW 03:10:49 10° NNE
STARLINK-1354 2.9 03:04:04 10° WNW 03:07:12 86° NNE 03:10:19 10° ESE
STARLINK-1347 2.9 03:04:21 10° WNW 03:07:29 87° NE 03:10:36 10° ESE
Cosmos 1844 4.1 03:01:57 10° NNW 03:07:46 71° ENE 03:13:32 10° SE
STARLINK-1357 2.8 03:04:47 10° WNW 03:07:54 87° NNE 03:11:02 10° ESE
STARLINK-1335 2.8 03:05:04 10° WNW 03:08:12 88° NNE 03:11:19 10° ESE
STARLINK-1327 2.8 03:05:25 10° WNW 03:08:33 88° NNE 03:11:40 10° ESE
STARLINK-1340 2.8 03:05:42 10° WNW 03:08:50 88° NNE 03:11:58 10° ESE
STARLINK-1390 3.8 03:05:09 10° WNW 03:09:12 73° NNE 03:13:16 10° ESE
STARLINK-1356 2.8 03:06:06 10° WNW 03:09:14 89° NE 03:12:21 10° ESE
STARLINK-1345 2.8 03:06:24 10° WNW 03:09:32 89° N 03:12:39 10° ESE
STARLINK-1292 4.4 03:06:06 10° W 03:09:43 46° N 03:13:21 10° ENE
STARLINK-1355 2.8 03:06:46 10° WNW 03:09:54 90° NNW 03:13:01 10° ESE
STARLINK-1273 3.6 03:06:10 11° WSW 03:10:10 89° SSE 03:14:20 10° ENE
STARLINK-1321 2.8 03:07:07 10° WNW 03:10:15 90° W 03:13:22 10° ESE
CZ-4C R/B 4.4 03:05:43 10° WNW 03:10:22 25° NNW 03:15:45 10° NE
STARLINK-1358 2.8 03:07:30 10° WNW 03:10:38 89° SSW 03:13:45 10° ESE
STARLINK-1332 2.8 03:07:47 10° WNW 03:10:55 89° SSW 03:14:03 10° ESE
STARLINK-1348 2.8 03:08:08 10° WNW 03:11:15 89° SSW 03:14:23 10° ESE
STARLINK-1330 2.8 03:08:27 10° WNW 03:11:35 88° SSW 03:14:42 10° ESE
STARLINK-1363 2.8 03:08:47 10° WNW 03:11:55 88° SW 03:15:02 10° ESE
STARLINK-1337 2.8 03:09:10 10° WNW 03:12:18 87° SSW 03:15:25 10° ESE
STARLINK-1342 2.8 03:09:28 10° WNW 03:12:37 87° SSW 03:15:44 10° ESE
STARLINK-1364 2.8 03:09:49 10° WNW 03:12:56 86° SSW 03:16:04 10° ESE
STARLINK-1268 4.3 03:10:07 10° WNW 03:13:01 36° N 03:15:56 10° ENE
STARLINK-1376 2.8 03:10:09 10° WNW 03:13:17 86° SSW 03:16:23 10° ESE
STARLINK-1360 2.8 03:10:29 10° WNW 03:13:37 86° SSW 03:16:45 10° ESE
STARLINK-1361 2.8 03:10:50 10° WNW 03:13:58 85° SSW 03:17:05 10° ESE
STARLINK-1367 2.8 03:11:06 10° WNW 03:14:16 84° SSW 03:17:26 10° ESE
STARLINK-61 3.5 03:10:41 11° WSW 03:14:23 78° SSE 03:18:19 10° ENE
NOSS 3-1 (A) 4.4 03:07:19 10° NW 03:14:33 48° WSW 03:22:44 10° S
STARLINK-1366 2.8 03:11:29 10° WNW 03:14:37 84° SSW 03:17:44 10° ESE
STARLINK-1288 3.6 03:10:59 10° WSW 03:15:08 86° NNW 03:19:19 10° ENE
STARLINK-1365 3.7 03:11:09 10° WNW 03:15:14 79° NNE 03:19:19 10° ESE
STARLINK-81 4.2 03:12:44 12° SSW 03:15:47 37° SE 03:19:10 10° ENE
Cosmos 1151 Rocket 3.9 03:12:10 10° N 03:16:30 53° ENE 03:20:48 10° SSE
STARLINK-1289 4.4 03:13:00 10° W 03:16:37 44° N 03:20:15 10° ENE
Cosmos 2322 Rocket 2.5 03:11:31 11° SW 03:16:49 60° WNW 03:22:24 10° NNE
Cosmos 1461 4.4 03:12:44 10° NNW 03:17:14 47° NE 03:21:49 10° ESE
STARLINK-54 4.0 03:14:25 12° SSW 03:17:30 41° SE 03:20:55 10° ENE
STARLINK-1316 4.4 03:15:28 10° WNW 03:18:24 36° N 03:21:20 10° ENE
CZ-4B R/B 4.5 03:16:53 10° E 03:18:41 15° ENE 03:20:31 10° NNE
SL-8 Rocket 4.1 03:12:41 10° S 03:18:59 89° E 03:25:17 10° N
STARLINK-77 4.1 03:15:52 11° SSW 03:19:01 39° SE 03:22:26 10° ENE
STARLINK-1257 4.4 03:16:21 10° WNW 03:19:18 36° N 03:22:15 10° ENE
STARLINK-1303 4.5 03:16:31 10° W 03:20:08 43° N 03:23:46 10° ENE
STARLINK-1308 3.7 03:16:01 10° WSW 03:20:10 81° NNW 03:24:21 10° ENE
STARLINK-1256 4.4 03:17:20 10° WNW 03:20:16 36° N 03:23:11 10° ENE
Cosmos 1076 Rocket 4.2 03:16:38 11° SW 03:20:38 41° WNW 03:24:48 10° N
STARLINK-58 4.2 03:17:49 10° W 03:20:51 39° N 03:23:53 10° ENE
Resurs 1-4 Rocket 3.3 03:16:30 10° N 03:21:01 29° WNW 03:25:32 10° WSW
STARLINK-1213 4.4 03:18:14 10° WNW 03:21:09 35° N 03:24:05 10° ENE
STARLINK-1263 4.4 03:19:08 10° WNW 03:22:02 35° N 03:24:58 10° ENE
Cosmos 2151 3.0 03:17:47 10° S 03:22:04 89° W 03:26:24 10° N
Lacrosse 5 rocket 3.7 03:20:18 10° SSE 03:22:05 13° SE 03:23:51 10° E
STARLINK-52 3.8 03:19:25 10° W 03:22:16 29° SW 03:25:06 10° SSE
STARLINK-1259 4.4 03:20:04 10° WNW 03:22:59 35° N 03:25:55 10° ENE
STARLINK-1265 4.4 03:20:26 10° WNW 03:23:23 36° N 03:26:21 10° ENE
Cosmos 2218 Rocket 4.2 03:17:03 10° S 03:23:26 82° E 03:29:52 10° N
STARLINK-1285 4.4 03:20:57 10° WNW 03:23:53 35° N 03:26:48 10° ENE
STARLINK-79 4.0 03:20:34 11° SW 03:23:53 42° SE 03:27:21 10° ENE
H-2A R/B 2.4 03:19:34 10° SSE 03:24:01 77° ENE 03:28:33 10° NNW
Cosmos 1766 Rocket 3.9 03:20:31 10° S 03:24:48 67° E 03:29:07 10° NNE
STARLINK-1338 3.6 03:21:05 10° WNW 03:25:05 87° NNE 03:29:06 10° ESE
COBE Rocket 4.0 03:20:06 10° S 03:25:09 69° W 03:30:21 10° NNW
STARLINK-78 3.9 03:22:08 10° SW 03:25:31 44° SE 03:29:00 10° ENE
STARLINK-1296 4.4 03:22:46 10° WNW 03:25:41 35° N 03:28:36 10° ENE
STARLINK-1260 4.4 03:23:40 10° WNW 03:26:35 35° N 03:29:31 10° ENE
STARLINK-57 3.8 03:23:43 10° SW 03:27:09 47° SE 03:30:38 10° ENE
STARLINK-1318 4.4 03:24:35 10° WNW 03:27:30 35° N 03:30:26 10° ENE
STARLINK-1017 4.5 03:23:41 10° SSW 03:27:32 39° SE 03:31:25 10° ENE
Cosmos 1408 3.0 03:23:58 10° SSW 03:27:33 47° WNW 03:31:07 10° N
Okean 3 Rocket 3.7 03:23:20 10° S 03:27:53 85° E 03:32:27 10° N
STARLINK-1275 4.4 03:25:30 10° WNW 03:28:25 35° N 03:31:20 10° ENE
STARLINK-49 3.8 03:25:13 10° SW 03:28:40 46° SE 03:32:09 10° ENE
STARLINK-1309 4.5 03:26:23 10° WNW 03:29:18 34° N 03:32:13 10° ENE
STARLINK-1304 3.8 03:25:59 10° WSW 03:30:07 74° NNW 03:34:17 10° ENE
STARLINK-1282 4.5 03:27:17 10° WNW 03:30:12 34° N 03:33:07 10° ENE
STARLINK-27 3.8 03:26:54 10° SW 03:30:23 47° SE 03:33:55 10° ENE
Spot 4 Rocket 4.3 03:26:08 10° NNE 03:31:18 74° ESE 03:36:25 10° S
STARLINK-74 3.8 03:28:30 10° SW 03:32:00 48° SE 03:35:31 10° ENE
STARLINK-1023 4.4 03:28:35 10° SSW 03:32:29 42° SE 03:36:25 10° ENE
STARLINK-1298 4.5 03:29:58 10° WNW 03:32:53 34° N 03:35:47 10° ENE
SL-19 R/B 4.4 03:28:30 10° NNE 03:32:53 84° WNW 03:36:38 10° SSW
STARLINK-1371 3.5 03:29:14 10° WNW 03:33:12 85° SSW 03:37:09 10° ESE
STARLINK 1040 4.3 03:31:00 10° WNW 03:33:22 32° N 03:35:44 10° ENE
STARLINK-39 3.7 03:30:07 10° SW 03:33:38 50° SSE 03:37:10 10° ENE
STARLINK-1293 4.5 03:30:55 10° WNW 03:33:49 34° N 03:36:44 10° ENE
STARLINK-48 4.3 03:30:10 10° W 03:33:59 50° NNW 03:37:47 10° ENE
Cosmos 1825 2.3 03:30:52 10° SSW 03:34:35 60° WNW 03:38:19 10° N
STARLINK-31 3.7 03:31:46 10° SW 03:35:17 52° SSE 03:38:50 10° ENE
STARLINK-1255 4.5 03:32:43 10° WNW 03:35:38 34° N 03:38:33 10° ENE
STARLINK-1278 4.0 03:32:31 10° WSW 03:36:46 66° NNW 03:41:01 10° ENE
STARLINK-69 3.5 03:33:18 10° SW 03:36:50 57° SSE 03:40:21 10° ENE
STARLINK-1007 4.3 03:33:32 10° SW 03:37:30 45° SE 03:41:28 10° ENE
STARLINK-1341 3.4 03:33:38 10° WNW 03:37:36 81° SSW 03:41:33 10° ESE
STARLINK-21 3.6 03:35:01 10° SW 03:38:33 55° SSE 03:42:07 10° ENE
STARLINK-1280 4.1 03:34:23 10° WSW 03:38:37 65° NNW 03:42:52 10° ENE
STARLINK-45 3.5 03:36:46 10° SW 03:40:20 61° SSE 03:43:56 10° ENE
SL-08 R/B 3.8 03:36:13 10° SSW 03:40:33 39° W 03:44:53 10° NNW
Cosmos 2237 4.4 03:37:10 10° SW 03:42:51 67° WNW 03:48:35 10° NNE
